Regional Weather Roundup
Issued by NWS

Home | Current Version | Previous Version | Graphics & Text | Print | Product List | Glossary On
Versions: 1 2 3 4 5 6 7 8 9 10 11 12 13 14 15 16 17 18 19 20 21 22 23 24 25 26 27 28
000
ASUS45 KBOI 290910
RWRID

IDAHO REGIONAL WEATHER ROUNDUP
NATIONAL WEATHER SERVICE BOISE ID
300 AM MDT FRI APR 29 2016

NOTE: "FAIR" INDICATES FEW OR NO CLOUDS BELOW 12000 FEET
WITH NO SIGNIFICANT WEATHER AND/OR OBSTRUCTIONS TO VISIBILITY

IDZ012-014-291000-
SOUTHWEST IDAHO


CITY           SKY/WX    TMP DP  RH WIND       PRES   REMARKS
BOISE          CLOUDY    52  37  56 W12       29.89S
CALDWELL       CLOUDY    51  40  65 W9        29.91S
MOUNTAIN HOME  CLOUDY    50  37  60 NW12      29.89S
$$

IDZ016-017-291000-
SOUTHCENTRAL IDAHO


CITY           SKY/WX    TMP DP  RH WIND       PRES   REMARKS
BURLEY         LGT RAIN  46  39  76 SE3       29.86F
JEROME         CLOUDY    42  42 100 S6        29.87S
TWIN FALLS     PTCLDY    42  34  73 SW16      29.87R
$$

IDZ019>023-291000-
SOUTHEAST IDAHO


CITY           SKY/WX    TMP DP  RH WIND       PRES   REMARKS
IDAHO FALLS    CLOUDY    39  29  67 CALM      29.88F
POCATELLO      CLOUDY    41  34  76 SE6       29.87F
REXBURG        CLOUDY    40  27  59 E6        29.88F
$$

IDZ006-010-011-018-031-032-291000-
CENTRAL IDAHO MOUNTAINS


CITY           SKY/WX    TMP DP  RH WIND       PRES   REMARKS
MCCALL         CLOUDY    38  35  89 CALM      29.90F
HAILEY         CLOUDY    41  37  87 NW3       29.91F
STANLEY          N/A     32  29  88 CALM      29.91F
SALMON         MOCLDY    36  32  87 CALM      29.93F
CHALLIS        PTCLDY    37  29  72 CALM      29.90F
$$

IDZ002-004-006-007-026-291000-
NORTHERN IDAHO


CITY           SKY/WX    TMP DP  RH WIND       PRES   REMARKS
LEWISTON       LGT RAIN  50  45  83 NE7       29.96F
LOWELL           N/A     46  44  93 CALM      29.97F
COEUR D`ALENE  CLOUDY    48  36  61 CALM      29.94F
MULLAN PASS    PTCLDY    30  27  88 CALM      29.93F
$$




USA.gov is the U.S. government's official web portal to all federal, state and local government web resources and services.